timestamp,wind_dir_avg,wind_spd_max_dir,wind_spd_avg,wind_spd_gust,battery_voltage,lat,long
2017-09-05 00:00:00+00:00,230.0,228.0,9.37,10.74,12.6,47.59359,-54.27349
2017-09-05 00:10:00+00:00,236.0,238.0,9.2,10.38,12.6,47.59359,-54.27349
2017-09-05 00:20:00+00:00,229.0,224.0,8.72,9.59,12.6,47.59359,-54.27349
2017-09-05 00:30:00+00:00,226.0,230.0,9.74,11.75,12.6,47.59359,-54.27349
2017-09-05 00:40:00+00:00,224.0,222.0,9.84,10.94,12.6,47.59359,-54.27349
2017-09-05 00:50:00+00:00,225.0,228.0,10.19,11.63,12.6,47.59359,-54.27349
2017-09-05 01:00:00+00:00,224.0,221.0,10.17,11.51,12.6,47.59359,-54.27349
2017-09-05 01:10:00+00:00,223.0,222.0,10.37,11.7,12.6,47.59359,-54.27349
2017-09-05 01:20:00+00:00,225.0,228.0,10.37,13.39,12.6,47.59359,-54.27349
2017-09-05 01:30:00+00:00,225.0,229.0,9.95,11.12,12.6,47.59359,-54.27349
2017-09-05 01:40:00+00:00,225.0,227.0,11.03,12.79,12.6,47.59359,-54.27349
2017-09-05 01:50:00+00:00,227.0,226.0,10.56,11.51,12.6,47.59359,-54.27349
2017-09-05 02:00:00+00:00,226.0,226.0,9.71,11.25,12.6,47.59359,-54.27349
2017-09-05 02:10:00+00:00,227.0,235.0,9.86,11.21,12.6,47.59359,-54.27349
2017-09-05 02:20:00+00:00,229.0,231.0,10.49,11.8,12.6,47.59359,-54.27349
2017-09-05 02:30:00+00:00,233.0,239.0,9.24,11.73,12.6,47.59359,-54.27349
2017-09-05 02:40:00+00:00,232.0,246.0,9.23,13.07,12.6,47.59359,-54.27349
2017-09-05 02:50:00+00:00,230.0,234.0,8.42,10.32,12.6,47.59359,-54.27349
2017-09-05 03:00:00+00:00,232.0,233.0,8.36,9.51,12.6,47.59359,-54.27349
2017-09-05 03:10:00+00:00,234.0,235.0,6.8,7.63,12.6,47.59359,-54.27349
2017-09-05 03:20:00+00:00,230.0,237.0,8.97,10.53,12.6,47.59359,-54.27349
2017-09-05 03:30:00+00:00,230.0,231.0,9.3,10.53,12.6,47.59359,-54.27349
2017-09-05 03:40:00+00:00,233.0,234.0,8.36,9.69,12.6,47.59359,-54.27349
2017-09-05 03:50:00+00:00,229.0,234.0,7.12,8.18,12.6,47.59359,-54.27349
2017-09-05 04:00:00+00:00,234.0,244.0,7.6,8.92,12.6,47.59359,-54.27349
2017-09-05 04:10:00+00:00,241.0,247.0,8.11,9.6,12.6,47.59359,-54.27349
2017-09-05 04:20:00+00:00,241.0,238.0,7.88,9.74,12.6,47.59359,-54.27349
2017-09-05 04:30:00+00:00,240.0,237.0,7.54,9.15,12.6,47.59359,-54.27349
2017-09-05 04:40:00+00:00,244.0,249.0,8.43,9.78,12.6,47.59359,-54.27349
2017-09-05 04:50:00+00:00,239.0,238.0,7.92,9.95,12.6,47.59359,-54.27349
2017-09-05 05:00:00+00:00,230.0,233.0,8.58,10.29,12.6,47.59359,-54.27349
2017-09-05 05:10:00+00:00,236.0,238.0,7.81,8.96,12.6,47.59359,-54.27349
2017-09-05 05:20:00+00:00,243.0,254.0,7.63,9.73,12.6,47.59359,-54.27349
2017-09-05 05:30:00+00:00,246.0,251.0,6.87,8.66,12.6,47.59359,-54.27349
2017-09-05 05:40:00+00:00,245.0,254.0,7.73,8.82,12.6,47.59359,-54.27349
2017-09-05 05:50:00+00:00,246.0,252.0,7.62,9.44,12.6,47.59359,-54.27349
2017-09-05 06:00:00+00:00,251.0,255.0,7.53,8.92,12.6,47.59359,-54.27349
2017-09-05 06:10:00+00:00,244.0,249.0,7.56,8.98,12.6,47.59359,-54.27349
2017-09-05 06:20:00+00:00,253.0,258.0,7.58,8.82,12.6,47.59359,-54.27349
2017-09-05 06:30:00+00:00,257.0,260.0,7.23,8.31,12.6,47.59359,-54.27349
2017-09-05 06:40:00+00:00,250.0,247.0,6.54,7.09,12.6,47.59359,-54.27349
2017-09-05 06:50:00+00:00,244.0,242.0,7.15,8.82,12.6,47.59359,-54.27349
2017-09-05 07:00:00+00:00,247.0,248.0,7.91,9.18,12.6,47.59359,-54.27349
2017-09-05 07:10:00+00:00,247.0,255.0,8.55,9.6,12.6,47.59359,-54.27349
2017-09-05 07:20:00+00:00,249.0,250.0,8.36,9.72,12.6,47.59359,-54.27349
2017-09-05 07:30:00+00:00,249.0,253.0,8.89,9.87,12.6,47.59359,-54.27349
2017-09-05 07:40:00+00:00,248.0,250.0,8.53,10.28,12.6,47.59359,-54.27349
2017-09-05 07:50:00+00:00,246.0,246.0,8.2,10.49,12.6,47.59359,-54.27349
2017-09-05 08:00:00+00:00,243.0,246.0,8.22,9.13,12.6,47.59359,-54.27349
2017-09-05 08:10:00+00:00,243.0,240.0,8.44,9.98,12.6,47.59359,-54.27349
2017-09-05 08:20:00+00:00,252.0,254.0,7.28,8.34,12.6,47.59359,-54.27349
2017-09-05 08:30:00+00:00,252.0,251.0,8.52,9.89,12.6,47.59359,-54.27349
2017-09-05 08:40:00+00:00,248.0,248.0,7.75,9.43,12.6,47.59359,-54.27349
2017-09-05 08:50:00+00:00,248.0,251.0,7.56,8.76,12.6,47.59359,-54.27349
2017-09-05 09:00:00+00:00,248.0,250.0,7.36,8.47,12.6,47.59359,-54.27349
2017-09-05 09:10:00+00:00,245.0,243.0,6.71,7.54,12.6,47.59359,-54.27349
2017-09-05 09:20:00+00:00,242.0,236.0,7.4,8.8,12.6,47.59359,-54.27349
2017-09-05 09:30:00+00:00,244.0,244.0,8.02,9.11,12.6,47.59359,-54.27349
2017-09-05 09:40:00+00:00,243.0,243.0,7.72,9.17,12.6,47.59359,-54.27349
2017-09-05 09:50:00+00:00,240.0,238.0,7.16,8.54,12.6,47.59359,-54.27349
2017-09-05 10:00:00+00:00,246.0,246.0,7.63,9.24,12.6,47.59359,-54.27349
2017-09-05 10:10:00+00:00,246.0,240.0,6.65,7.51,12.6,47.59359,-54.27349
2017-09-05 10:20:00+00:00,245.0,243.0,7.1,8.29,12.6,47.59359,-54.27349
2017-09-05 10:30:00+00:00,246.0,252.0,6.89,9.02,12.6,47.59359,-54.27349
2017-09-05 10:40:00+00:00,249.0,245.0,7.06,7.94,12.7,47.59359,-54.27349
2017-09-05 10:50:00+00:00,249.0,252.0,7.86,8.83,12.8,47.59359,-54.27349
2017-09-05 11:00:00+00:00,248.0,253.0,7.95,9.1,12.8,47.59359,-54.27349
2017-09-05 11:10:00+00:00,245.0,250.0,8.24,9.67,12.9,47.59359,-54.27349
2017-09-05 11:20:00+00:00,252.0,248.0,8.25,9.42,13.3,47.59359,-54.27349
2017-09-05 11:30:00+00:00,250.0,251.0,6.93,8.09,13.4,47.59359,-54.27349
2017-09-05 11:40:00+00:00,249.0,251.0,7.69,8.92,13.4,47.59359,-54.27349
2017-09-05 11:50:00+00:00,247.0,251.0,6.99,8.02,13.7,47.59359,-54.27349
2017-09-05 12:00:00+00:00,247.0,246.0,6.98,7.57,14.1,47.59359,-54.27349
2017-09-05 12:10:00+00:00,250.0,257.0,7.57,9.87,13.8,47.59359,-54.27349
2017-09-05 12:20:00+00:00,243.0,245.0,6.3,7.29,13.8,47.59359,-54.27349
2017-09-05 12:30:00+00:00,248.0,248.0,6.24,7.27,13.8,47.59359,-54.27349
2017-09-05 12:40:00+00:00,248.0,240.0,6.01,7.51,13.8,47.59359,-54.27349
2017-09-05 12:50:00+00:00,263.0,255.0,7.41,9.4,13.6,47.59359,-54.27349
2017-09-05 13:00:00+00:00,263.0,264.0,9.11,10.52,13.8,47.59359,-54.27349
2017-09-05 13:10:00+00:00,248.0,254.0,7.58,8.53,13.6,47.59359,-54.27349
2017-09-05 13:20:00+00:00,214.0,215.0,7.9,8.74,13.8,47.59359,-54.27349
2017-09-05 13:30:00+00:00,217.0,218.0,7.73,8.81,13.7,47.59359,-54.27349
2017-09-05 13:40:00+00:00,218.0,220.0,8.31,9.07,13.8,47.59359,-54.27349
2017-09-05 13:50:00+00:00,217.0,217.0,9.9,10.77,13.8,47.59359,-54.27349
2017-09-05 14:00:00+00:00,217.0,218.0,9.93,11.28,13.8,47.59359,-54.27349
2017-09-05 14:10:00+00:00,217.0,217.0,9.65,10.7,13.8,47.59359,-54.27349
2017-09-05 14:20:00+00:00,219.0,221.0,8.92,9.94,13.8,47.59359,-54.27349
2017-09-05 14:30:00+00:00,216.0,214.0,10.11,11.99,13.8,47.59359,-54.27349
2017-09-05 14:40:00+00:00,220.0,219.0,10.93,11.86,13.8,47.59359,-54.27349
2017-09-05 14:50:00+00:00,219.0,217.0,10.15,10.91,13.8,47.59359,-54.27349
2017-09-05 15:00:00+00:00,221.0,213.0,10.17,13.35,13.8,47.59359,-54.27349
2017-09-05 15:10:00+00:00,221.0,226.0,8.96,10.24,13.9,47.59359,-54.27349
2017-09-05 15:20:00+00:00,221.0,220.0,8.9,9.68,13.9,47.59359,-54.27349
2017-09-05 15:30:00+00:00,214.0,216.0,9.6,10.97,13.8,47.59359,-54.27349
2017-09-05 15:40:00+00:00,211.0,216.0,9.58,10.63,13.8,47.59359,-54.27349
2017-09-05 15:50:00+00:00,215.0,215.0,9.64,10.97,13.8,47.59359,-54.27349
2017-09-05 16:00:00+00:00,214.0,211.0,8.75,10.29,13.8,47.59359,-54.27349
2017-09-05 16:10:00+00:00,218.0,218.0,9.3,10.74,13.7,47.59359,-54.27349
2017-09-05 16:20:00+00:00,217.0,218.0,9.66,10.89,13.8,47.59359,-54.27349
2017-09-05 16:30:00+00:00,222.0,219.0,9.95,11.45,13.8,47.59359,-54.27349
2017-09-05 16:40:00+00:00,226.0,222.0,10.24,11.79,13.8,47.59359,-54.27349
2017-09-05 16:50:00+00:00,224.0,222.0,10.61,11.65,13.8,47.59359,-54.27349
2017-09-05 17:00:00+00:00,226.0,225.0,11.08,12.02,13.8,47.59359,-54.27349
2017-09-05 17:10:00+00:00,223.0,223.0,11.06,12.48,13.7,47.59359,-54.27349
2017-09-05 17:20:00+00:00,225.0,228.0,10.69,12.31,13.8,47.59359,-54.27349
2017-09-05 17:30:00+00:00,225.0,225.0,10.5,12.14,13.8,47.59359,-54.27349
2017-09-05 17:40:00+00:00,226.0,236.0,10.3,12.9,13.7,47.59359,-54.27349
2017-09-05 17:50:00+00:00,223.0,219.0,9.14,10.23,13.7,47.59359,-54.27349
2017-09-05 18:00:00+00:00,221.0,220.0,10.28,11.34,14.2,47.59359,-54.27349
2017-09-05 18:10:00+00:00,225.0,224.0,10.21,11.26,14.0,47.59359,-54.27349
2017-09-05 18:20:00+00:00,220.0,223.0,9.25,10.39,13.8,47.59359,-54.27349
2017-09-05 18:30:00+00:00,218.0,221.0,10.54,12.0,13.8,47.59359,-54.27349
2017-09-05 18:40:00+00:00,223.0,225.0,10.27,11.96,14.3,47.59359,-54.27349
2017-09-05 18:50:00+00:00,223.0,223.0,9.58,11.1,13.7,47.59359,-54.27349
2017-09-05 19:00:00+00:00,222.0,227.0,9.89,10.98,14.2,47.59359,-54.27349
2017-09-05 19:10:00+00:00,218.0,220.0,10.61,11.37,14.1,47.59359,-54.27349
2017-09-05 19:20:00+00:00,221.0,217.0,9.54,10.65,14.2,47.59359,-54.27349
2017-09-05 19:30:00+00:00,224.0,218.0,9.53,12.11,14.2,47.59359,-54.27349
2017-09-05 19:40:00+00:00,225.0,225.0,8.93,10.23,14.1,47.59359,-54.27349
2017-09-05 19:50:00+00:00,221.0,216.0,9.88,11.22,14.0,47.59359,-54.27349
2017-09-05 20:00:00+00:00,224.0,224.0,9.68,11.24,13.9,47.59359,-54.27349
2017-09-05 20:10:00+00:00,226.0,227.0,10.87,12.33,13.8,47.59359,-54.27349
2017-09-05 20:20:00+00:00,221.0,222.0,10.1,11.56,13.8,47.59359,-54.27349
2017-09-05 20:30:00+00:00,221.0,225.0,9.24,10.68,13.8,47.59359,-54.27349
2017-09-05 20:40:00+00:00,225.0,224.0,9.83,11.55,13.8,47.59359,-54.27349
2017-09-05 20:50:00+00:00,222.0,222.0,9.46,11.13,13.8,47.59359,-54.27349
2017-09-05 21:00:00+00:00,220.0,224.0,9.6,10.69,13.7,47.59359,-54.27349
2017-09-05 21:10:00+00:00,219.0,219.0,10.46,12.07,13.4,47.59359,-54.27349
2017-09-05 21:20:00+00:00,218.0,225.0,9.55,11.02,13.5,47.59359,-54.27349
2017-09-05 21:30:00+00:00,220.0,218.0,10.57,12.03,13.4,47.59359,-54.27349
2017-09-05 21:40:00+00:00,227.0,225.0,11.91,13.02,13.4,47.59359,-54.27349
2017-09-05 21:50:00+00:00,225.0,230.0,11.79,13.14,13.4,47.59359,-54.27349
2017-09-05 22:00:00+00:00,228.0,222.0,10.66,12.53,13.2,47.59359,-54.27349
2017-09-05 22:10:00+00:00,229.0,227.0,9.54,10.51,13.0,47.59359,-54.27349
2017-09-05 22:20:00+00:00,228.0,227.0,7.64,8.46,13.0,47.59359,-54.27349
2017-09-05 22:30:00+00:00,234.0,235.0,9.85,10.87,13.0,47.59359,-54.27349
2017-09-05 22:40:00+00:00,236.0,236.0,11.11,13.04,13.0,47.59359,-54.27349
2017-09-05 22:50:00+00:00,233.0,232.0,11.52,13.77,12.9,47.59359,-54.27349
2017-09-05 23:00:00+00:00,232.0,232.0,11.86,13.85,12.8,47.59359,-54.27349
2017-09-05 23:10:00+00:00,233.0,237.0,10.62,12.66,12.6,47.59359,-54.27349
2017-09-05 23:20:00+00:00,231.0,228.0,11.64,13.36,12.7,47.59359,-54.27349
2017-09-05 23:30:00+00:00,232.0,234.0,12.05,13.8,12.7,47.59359,-54.27349
2017-09-05 23:40:00+00:00,229.0,232.0,12.58,14.12,12.7,47.59359,-54.27349
2017-09-05 23:50:00+00:00,228.0,223.0,12.12,13.68,12.7,47.59359,-54.27349
